Preview of NWS' New Version of Forecast
This preview is not operational and should not be used for support decisions.

Regional Weather Roundup (RWR)

Issued by Gray - Portland, ME (GYX)

                            
000
ASUS41 KGYX 220505
RWRGYX
WEATHER ROUNDUP FOR MAINE AND NEW HAMPSHIRE
NATIONAL WEATHER SERVICE GRAY ME
1200 AM EST TUE JAN 22 2019

MEZ002-005-006-010-012-015-018-020-021-024-026-027-029-220600-
MAINE
  
CITY           SKY/WX    TMP DP  RH WIND       PRES   REMARKS
PORTLAND       CLOUDY     5  -7  57 W12       30.03R WCI -11          
SANFORD        FAIR       2  -9  60 W13       30.05R WCI -15          
BAR HARBOR     LGT SNOW   5  -2  72 NW10G18   29.86R WCI -10          
WISCASSET      CLOUDY     6  -4  63 NW9G21    29.99R                  
ROCKLAND       LGT SNOW   5  -1  76 W16G26    29.93R WCI -14          
FRYEBURG       CLOUDY     3 -12  49 W7        29.99R                  
LEWISTONAUBURN FAIR       3  -8  60 NW12G18   30.00R WCI -13          
AUGUSTA        CLOUDY     5  -8  55 NW18G32   29.94R WCI -15          
WATERVILLE     FLURRIES   5  -4  66 MISG      29.91R                  
BANGOR         LGT SNOW   6  -2  69 NW15G21   29.87R BLWGSNOWWCI -12  
GREENVILLE       N/A     -2 -11  65 NW23G32   29.75R WCI -26          
MILLINOCKET    CLOUDY     6  -1  73 NW12G18   29.82R HAZE    WCI  -9  
HOULTON        CLOUDY     5  -2  72 NW10G20   29.74R HAZE    WCI -10  
PRESQUE ISLE   LGT SNOW   5  -2  72 NW17G32   29.77R WCI -14          
FRENCHVILLE    MIX PCPN   4  -6  63 NW24G37   29.70R WCI -19          
CARIBOU        LGT SNOW   5  -4  66 NW16G24   29.74R WCI -14          
$$

NHZ002-005-008-009-011-012-014-220600-
NEW HAMPSHIRE
  
CITY           SKY/WX    TMP DP  RH WIND       PRES   REMARKS
PORTSMOUTH     PTCLDY     4 -13  45 W16G28    30.07R WCI -15          
ROCHESTER      FAIR       3 -11  52 W9G18     30.04R                  
NASHUA         FAIR       3 -12  49 W18G24    30.15R WCI -17          
MANCHESTER     FAIR       5 -12  45 NW22G30   30.12R WCI -16          
CONCORD        FAIR       2 -12  52 NW17G26   30.12R WCI -18          
LACONIA        FAIR       0 -12  57 W14G20    30.09R WCI -19          
PLYMOUTH       FAIR       1 -10  59 NW21G33   30.14R HAZE    WCI -21  
BERLIN         CLOUDY    -2 -11  65 NW9       29.99R HAZE             
WHITEFIELD     CLOUDY    -2 -12  62 W13       30.11R WCI -20          
JAFFREY        FAIR       1 -15  47 VRB6G22   30.06S                  
KEENE          FAIR       2 -14  47 NW10G16   30.20  WCI -14          
LEBANON        FAIR       2 -13  49 VRB3      30.19R                  
MT WASHINGTON  BLWGSNOW -20 -20 100 NW104G115   N/A  VSB 1/16WCI -66  
$$

VTZ005-007-008-220600-
VERMONT
  
CITY           SKY/WX    TMP DP  RH WIND       PRES   REMARKS
ST JOHNSBURY     N/A     -5 -12  72 MISG      30.17R                  
MONTPELIER     FAIR      -3 -12  65 W10G23    30.21R WCI -20          
BURLINGTON     FAIR       1 -11  57 NW15      30.34R WCI -18          
$$

MAZ007-012-024-CTZ003-RIZ002-NYZ038-NYZ072-220600-
SOUTHERN NEW ENGLAND AND NY
  
CITY           SKY/WX    TMP DP  RH WIND       PRES   REMARKS
BOSTON         FAIR       8 -10  43 W20G35    30.15R WCI -11          
WORCESTER      FAIR       0 -16  46 NW21G31   30.07R WCI -22          
NANTUCKET      FAIR       8  -5  55 NW28G43   30.12R WCI -14          
PROVIDENCE     FAIR       5  -9  52 NW13      30.20R WCI -12          
HARTFORD       FAIR       5 -13  43 NW20G32   30.27R WCI -15          
ALBANY         FAIR       5 -11  47 W18G26    30.38R WCI -15          
NEW YORK CITY  FAIR      15   2  56 NW21G31   30.40R WCI  -2          
$$

ANZ081-ANZ082-ANZ150-NHZ014-MEZ023>029-220600-
COASTAL MARINE OBSERVATIONS
  
STATION/POSITION TIME  TEMP    WIND        PRES    WAVE
                       AIR SEA DIR/SP/G            HT/PER
                 (UTC) (F)     (DEG/KT/KT) (MB)    (FT/S)
MOUNT DESERT ROC 0500   10     290/ 35/ 40 1010.8R
MATINICUS ROCK   0400    9     310/ 36/ 41 1011.4R
ISLE OF SHOALS   0400    6     300/ 27/ 32 1016.9R
CASHES LEDGE BUO 0450   13 39              1013.4R  11/ 8
$$

.............KEY..............
   WCI - WIND CHILL
   TC  - TEMPERATURE IN CELSIUS
   VSB - VISIBILITY IN MILES
   HX  - HEAT INDEX
   FAIR- INDICATES FEW OR NO CLOUDS BELOW 12,000 FT, WITH NO 
         SIGNIFICANT WEATHER AND/OR OBSTRUCTIONS TO VISIBILITY.